Regional Weather Roundup
Issued by NWS Northern Indiana

Home | Current Version | Previous Version | Graphics & Text | Print | Product List | Glossary On
Versions: 1 2 3 4 5 6 7 8 9 10 11 12 13 14 15 16 17 18 19 20 21 22 23 24 25 26 27 28 29 30 31 32 33 34 35 36 37 38 39 40 41 42 43 44 45 46 47 48 49 50
647
ASUS43 KIWX 240510
RWRIWX

KIWX WEATHER ROUNDUP
NATIONAL WEATHER SERVICE NORTHERN INDIANA
1200 AM EST FRI FEB 24 2017

NOTE: "FAIR" INDICATES FEW OR NO CLOUDS BELOW 12,000 FEET WITH NO
SIGNIFICANT WEATHER AND/OR OBSTRUCTIONS TO VISIBILITY.

* THESE STATIONS ARE NOT UNDER NWS QUALITY CONTROL. THEY ALSO MAY NOT
  REPORT WEATHER SUCH AS PRECIPITATION OR FOG.

INZ001>027-240600-
NORTHERN INDIANA

CITY           SKY/WX    TMP DP  RH WIND       PRES   REMARKS
GARY*          MOCLDY    40  38  96 NE6       29.68F
VALPARAISO     MOCLDY    43  41  93 E7        29.68F FOG
MICHIGAN CITY* CLOUDY    41  41 100 CALM      29.68F FOG
LAPORTE*       MOCLDY    44  44  97 E6        29.69F FOG
KNOX*          MOCLDY    43  36  75 E5        29.67F
SOUTH BEND     CLOUDY    48  46  93 E15       29.69F
GOSHEN         LGT RAIN  51  46  83 E8        29.70F
MONTICELLO*    CLOUDY    51  47  86 NE3       29.66S
LOGANSPORT*    CLOUDY    52  50  93 E7        29.68S
ROCHESTER*     PTCLDY    52  48  87 NE5       29.69S
WARSAW*        CLOUDY    52  46  82 E5        29.70S
ANGOLA*        CLOUDY    50  48  93 E13       29.72F
FORT WAYNE     CLOUDY    54  50  86 E7        29.70F
HUNTINGTON*    PTCLDY    56  54  92 SE3       29.70S
PERU/GRISSOM   MOCLDY    56  56 100 SE7       29.66S
MARION*        MOCLDY    56  53  88 SE8       29.69F

$$
INZ028>050-240600-
CENTRAL INDIANA

CITY           SKY/WX    TMP DP  RH WIND       PRES   REMARKS
LAFAYETTE      MOCLDY    54  52  93 E7        29.64F
KOKOMO*        CLOUDY    57  54  89 SE8       29.69S
MUNCIE*        PTCLDY    61  54  77 S6        29.69F
INDIANAPOLIS   MOCLDY    61  55  81 SE15      29.66F

$$
MIZ043>046-050>051-056>058-064>065-071>073-077>080-240600-
SOUTHWEST LOWER MICHIGAN

CITY           SKY/WX    TMP DP  RH WIND       PRES   REMARKS
BATTLE CREEK   LGT RAIN  45  44  97 NE12      29.74F
BENTON HARBOR  LGT RAIN  46  43  89 E12G21    29.69F FOG
COLDWATER*     LGT RAIN  48  46  93 E9        29.74F
HILLSDALE*     LGT RAIN  45  41  87 E14       29.76S
HOLLAND        LGT RAIN  41  38  89 E12       29.75F
GRAND RAPIDS   LGT RAIN  40  36  86 NE15      29.77F
KALAMAZOO      LGT RAIN  47  42  83 NE8       29.74F
STURGIS*       CLOUDY    48  46  93 E12       29.71F
THREE RIVERS*  CLOUDY    47  45  90 E10       29.73S

$$
OHZ001>008-015>018-024>025-240600-
NORTHWEST OHIO

CITY           SKY/WX    TMP DP  RH WIND       PRES   REMARKS
WAUSEON*       CLOUDY    45  43  93 NE14G23   29.77S
DEFIANCE       CLOUDY    49  45  86 NE10G20   29.74F
FINDLAY        MOCLDY    59  52  77 E8        29.72F
TOLEDO EXPRESS CLOUDY    44  43  96 NE12      29.78S
TOLEDO METCALF LGT RAIN  44  42  93 NE12      29.80F
LIMA           MOCLDY    58  55  90 SE12      29.72F

$$
AND FOR LAKE MICHIGAN COASTAL AND OPEN LAKE BUOY OBSERVATIONS

STATION/POSITION TEMP    WIND        PRES    VSBY  WAVE
                 AIR SEA DIR/SP/G                  HT/PER
                 (F)     (DEG/KT/KT) (MB)    (MI)  (FT/S)
CALUMET HARBOR    38     350/  9/ 12 1005.1F
MICHIGAN CITY     38      60/  5/  6   N/A
BURNS HARBOR      37      60/  4/  8 1006.1F
SAINT JOSEPH      46      70/  2/  7 1005.8

$$
&&




USA.gov is the U.S. government's official web portal to all federal, state and local government web resources and services.